Location: Unspecified
(0.0000°N, 0.0000°E)
Time: 03:18:23
(UTC+00:00)

OBJECT M - Pass Details

Date: 21 February 2026
Orbit: 539 x 546 km, 97.4° (Epoch: 6 March)

Event Time Altitude Azimuth Distance (km) Brightness Sun altitude
Rises 05:12:00 0° 199° (SSW) 2,711 ? -15.1°
Reaches altitude 10° 05:14:53 10° 223° (SW) 1,815 ? -14.4°
Enters shadow 05:15:37 12° 233° (SW) 1,662 ? -14.3°
